sat.trackr.live / text

‹ back to catalog

STARLINK-32630

NORAD 62047 · 2024-216R

PAYLOAD ACTIVE UNKNOWN

§ Identity

Operator
Country
US
Launch date
2024-11-21
Launch site
AFETR
Launch vehicle
Mass (kg)
RCS (m²)

Purposes: comms

External: N2YO · Heavens-Above · Gunter

§ Orbital elements

Epoch: 2026-09-21T08:05:48.800832Z

Period
94.27 min
Inclination
43.0005°
Eccentricity
0.0001360
Mean motion
15.27583253 rev/d
Perigee alt
482.1 km
Apogee alt
484.0 km
Semi-major
6,861.2 km
B*
2.5330e-4
RAAN
238.6542°
Arg perigee
270.2949°
Mean anomaly
89.7747°
Rev number
10,371

§ Raw data

STARLINK-326301 62047U 24216R   26264.33737038  .00006715  00000+0  25330-3 0  99922 62047  43.0005 238.6542 0001360 270.2949  89.7747 15.27583253103711

JSON: /api/v1/satellites/62047 · /tle

For live sub-satellite position, see the globe view (requires WebGL).

§ Visibility from observer

Set your observer location to see the next 7 days of passes ≥ 10°. The values pass through the URL so the page stays shareable.

No JS? Fill the form by hand. The geolocation button needs JavaScript.